Location: Unspecified
(20.0000°S, 0.0000°E)
Time: 08:57:59
(UTC+00:00)

KKS-1 - Pass Details

Date: 28 August 2019
Orbit: 637 x 650 km, 98.3° (Epoch: 21 October)

Event Time Altitude Azimuth Distance (km) Brightness Sun altitude
Rises 18:42:32 0° 12° (NNE) 2,949 ? -12.9°
Reaches altitude 10° 18:44:44 10° 12° (NNE) 2,045 ? -13.4°
Maximum altitude 18:49:12 87° 280° (W) 657 ? -14.4°
Drops below altitude 10° 18:53:42 10° 193° (SSW) 2,062 ? -15.5°
Sets 18:55:55 0° 192° (SSW) 2,977 ? -16.0°
